| time (UTC) | temp F | wind direction | speed MPH | gust MPH | rain 1hr in | rain 24hr in | rain mn in | humidity % | barometer mb |
| 20260507042802 | 78 | 82 | 0.0 | 9.0 | 0.00 | 0.00 | 0.00 | 83 | 1001.7 |
| 20260507042259 | 78 | 87 | 3.0 | 9.0 | 0.00 | 0.00 | 0.00 | 82 | 1001.8 |
| 20260507041800 | 79 | 92 | 0.0 | 9.0 | 0.00 | 0.00 | 0.00 | 83 | 1001.7 |
| 20260507040800 | 79 | 80 | 2.0 | 11.0 | 0.00 | 0.00 | 0.00 | 82 | 1001.9 |
| 20260507040258 | 79 | 82 | 4.0 | 11.0 | 0.00 | 0.00 | 0.00 | 82 | 1001.8 |
| 20260507035800 | 79 | 92 | 3.0 | 9.0 | 0.00 | 0.00 | 0.00 | 82 | 1001.8 |
| 20260507035258 | 79 | 93 | 2.0 | 9.0 | 0.00 | 0.00 | 0.00 | 82 | 1001.8 |
| 20260507034800 | 79 | 56 | 3.0 | 9.0 | 0.00 | 0.00 | 0.00 | 82 | 1001.8 |
| 20260507034258 | 79 | 93 | 2.0 | 9.0 | 0.00 | 0.00 | 0.00 | 82 | 1001.8 |
| 20260507033759 | 79 | 93 | 2.0 | 9.0 | 0.00 | 0.00 | 0.00 | 82 | 1001.8 |
| 20260507033256 | 79 | 78 | 2.0 | 7.0 | 0.00 | 0.00 | 0.00 | 82 | 1001.8 |
| 20260507032800 | 79 | 76 | 1.0 | 9.0 | 0.00 | 0.00 | 0.00 | 82 | 1001.8 |
| 20260507032256 | 79 | 73 | 2.0 | 9.0 | 0.00 | 0.00 | 0.00 | 82 | 1001.9 |
| 20260507031257 | 80 | 85 | 0.0 | 6.0 | 0.00 | 0.00 | 0.00 | 81 | 1001.7 |
| 20260507030258 | 80 | 71 | 2.0 | 7.0 | 0.00 | 0.00 | 0.00 | 81 | 1001.7 |
| 20260507025759 | 80 | 76 | 1.0 | 10.0 | 0.00 | 0.00 | 0.00 | 81 | 1001.7 |
| 20260507025256 | 80 | 80 | 5.0 | 11.0 | 0.00 | 0.00 | 0.00 | 81 | 1001.8 |
| 20260507024800 | 80 | 69 | 4.0 | 11.0 | 0.00 | 0.00 | 0.00 | 81 | 1001.8 |
| 20260507024256 | 80 | 69 | 3.0 | 10.0 | 0.00 | 0.00 | 0.00 | 80 | 1001.8 |
| 20260507023759 | 80 | 71 | 4.0 | 10.0 | 0.00 | 0.00 | 0.00 | 80 | 1001.8 |
| 20260507023256 | 80 | 41 | 5.0 | 10.0 | 0.00 | 0.00 | 0.00 | 80 | 1001.8 |
| 20260507022759 | 80 | 100 | 2.0 | 9.0 | 0.00 | 0.00 | 0.00 | 80 | 1001.8 |
| 20260507022255 | 80 | 69 | 2.0 | 12.0 | 0.00 | 0.00 | 0.00 | 80 | 1001.7 |
| 20260507020758 | 80 | 89 | 4.0 | 12.0 | 0.00 | 0.00 | 0.00 | 79 | 1001.6 |
| 20260507020256 | 80 | 76 | 4.0 | 12.0 | 0.00 | 0.00 | 0.00 | 78 | 1001.6 |
| 20260507015256 | 81 | 86 | 2.0 | 11.0 | 0.00 | 0.00 | 0.00 | 77 | 1001.6 |
| 20260507014758 | 81 | 68 | 2.0 | 10.0 | 0.00 | 0.00 | 0.00 | 77 | 1001.6 |
| 20260507013758 | 81 | 93 | 2.0 | 12.0 | 0.00 | 0.00 | 0.00 | 76 | 1001.4 |
| 20260507012755 | 81 | 59 | 2.0 | 14.0 | 0.00 | 0.00 | 0.00 | 75 | 1001.3 |
| 20260507012254 | 81 | 85 | 4.0 | 10.0 | 0.00 | 0.00 | 0.00 | 75 | 1001.2 |
| 20260507011254 | 82 | 65 | 5.0 | 11.0 | 0.00 | 0.00 | 0.00 | 73 | 1001.1 |
| 20260507010757 | 82 | 83 | 2.0 | 11.0 | 0.00 | 0.00 | 0.00 | 73 | 1001.0 |
| 20260507010254 | 82 | 66 | 2.0 | 9.0 | 0.00 | 0.00 | 0.00 | 73 | 1001.0 |
| 20260507005757 | 82 | 65 | 2.0 | 10.0 | 0.00 | 0.00 | 0.00 | 73 | 1001.0 |
| 20260507005252 | 82 | 65 | 3.0 | 11.0 | 0.00 | 0.00 | 0.00 | 74 | 1000.9 |
| 20260507004755 | 83 | 85 | 4.0 | 11.0 | 0.00 | 0.00 | 0.00 | 74 | 1000.8 |
| 20260507004252 | 83 | 66 | 4.0 | 11.0 | 0.00 | 0.00 | 0.00 | 75 | 1000.7 |
| 20260507003754 | 83 | 76 | 3.0 | 10.0 | 0.00 | 0.00 | 0.00 | 76 | 1000.7 |
| 20260507003252 | 83 | 75 | 3.0 | 11.0 | 0.00 | 0.00 | 0.00 | 76 | 1000.7 |
| 20260507002253 | 83 | 97 | 4.0 | 11.0 | 0.00 | 0.00 | 0.00 | 76 | 1000.5 |
| 20260507001757 | 83 | 94 | 4.0 | 11.0 | 0.00 | 0.00 | 0.00 | 76 | 1000.4 |
| 20260507001253 | 83 | 96 | 5.0 | 14.0 | 0.00 | 0.00 | 0.00 | 76 | 1000.3 |
| 20260507000753 | 83 | 97 | 6.0 | 14.0 | 0.00 | 0.00 | 0.00 | 76 | 1000.2 |
| 20260507000251 | 84 | 92 | 8.0 | 14.0 | 0.00 | 0.00 | 0.00 | 75 | 1000.2 |
| 20260506235754 | 84 | 86 | 6.0 | 14.0 | 0.00 | 0.00 | 0.00 | 74 | 1000.2 |
| 20260506235254 | 84 | 65 | 4.0 | 13.0 | 0.00 | 0.00 | 0.00 | 73 | 1000.0 |
| 20260506234755 | 84 | 85 | 3.0 | 12.0 | 0.00 | 0.00 | 0.00 | 73 | 999.9 |
| 20260506234253 | 84 | 89 | 4.0 | 12.0 | 0.00 | 0.00 | 0.00 | 72 | 1000.0 |
| 20260506233755 | 84 | 78 | 3.0 | 12.0 | 0.00 | 0.00 | 0.00 | 71 | 999.9 |
| 20260506233252 | 84 | 75 | 1.0 | 11.0 | 0.00 | 0.00 | 0.00 | 71 | 999.8 |
| 20260506232756 | 85 | 79 | 3.0 | 10.0 | 0.00 | 0.00 | 0.00 | 71 | 999.8 |
| 20260506232252 | 85 | 86 | 5.0 | 10.0 | 0.00 | 0.00 | 0.00 | 70 | 999.7 |
| 20260506231755 | 85 | 75 | 0.0 | 12.0 | 0.00 | 0.00 | 0.00 | 70 | 999.6 |
| 20260506231255 | 85 | 92 | 3.0 | 12.0 | 0.00 | 0.00 | 0.00 | 70 | 999.6 |
| 20260506230754 | 85 | 62 | 4.0 | 10.0 | 0.00 | 0.00 | 0.00 | 69 | 999.6 |
| 20260506230304 | 85 | 63 | 4.0 | 10.0 | 0.00 | 0.00 | 0.00 | 69 | 999.4 |
| 20260506225755 | 85 | 83 | 4.0 | 11.0 | 0.00 | 0.00 | 0.00 | 69 | 999.3 |
| 20260506225251 | 85 | 89 | 4.0 | 14.0 | 0.00 | 0.00 | 0.00 | 68 | 999.3 |
| 20260506224754 | 85 | 61 | 6.0 | 16.0 | 0.00 | 0.00 | 0.00 | 68 | 999.3 |
| 20260506224251 | 86 | 58 | 5.0 | 17.0 | 0.00 | 0.00 | 0.00 | 67 | 999.3 |
| 20260506223250 | 86 | 75 | 4.0 | 14.0 | 0.00 | 0.00 | 0.00 | 66 | 999.3 |
| 20260506222754 | 86 | 71 | 5.0 | 16.0 | 0.00 | 0.00 | 0.00 | 66 | 999.3 |
| 20260506222250 | 86 | 59 | 7.0 | 16.0 | 0.00 | 0.00 | 0.00 | 65 | 999.2 |
| 20260506221756 | 87 | 61 | 2.0 | 12.0 | 0.00 | 0.00 | 0.00 | 65 | 999.1 |
| 20260506221250 | 87 | 63 | 6.0 | 14.0 | 0.00 | 0.00 | 0.00 | 65 | 999.0 |
| 20260506220753 | 87 | 55 | 7.0 | 17.0 | 0.00 | 0.00 | 0.00 | 65 | 998.9 |
| 20260506220251 | 87 | 55 | 6.0 | 17.0 | 0.00 | 0.00 | 0.00 | 64 | 998.9 |
| 20260506215754 | 87 | 65 | 5.0 | 13.0 | 0.00 | 0.00 | 0.00 | 65 | 998.9 |
| 20260506214249 | 88 | 56 | 6.0 | 17.0 | 0.00 | 0.00 | 0.00 | 65 | 998.7 |
| 20260506213753 | 88 | 48 | 5.0 | 13.0 | 0.00 | 0.00 | 0.00 | 65 | 998.6 |
| 20260506212752 | 89 | 62 | 7.0 | 13.0 | 0.00 | 0.00 | 0.00 | 65 | 998.7 |
| 20260506212249 | 89 | 45 | 5.0 | 13.0 | 0.00 | 0.00 | 0.00 | 65 | 998.6 |
| 20260506211753 | 89 | 49 | 5.0 | 16.0 | 0.00 | 0.00 | 0.00 | 64 | 998.5 |
| 20260506211249 | 89 | 55 | 9.0 | 16.0 | 0.00 | 0.00 | 0.00 | 64 | 998.4 |
| 20260506210752 | 89 | 65 | 8.0 | 16.0 | 0.00 | 0.00 | 0.00 | 64 | 998.4 |
| 20260506210249 | 89 | 72 | 10.0 | 16.0 | 0.00 | 0.00 | 0.00 | 63 | 998.4 |
| 20260506205752 | 89 | 68 | 6.0 | 18.0 | 0.00 | 0.00 | 0.00 | 64 | 998.4 |
| 20260506204752 | 90 | 38 | 11.0 | 17.0 | 0.00 | 0.00 | 0.00 | 64 | 998.3 |
| 20260506204249 | 90 | 87 | 5.0 | 20.0 | 0.00 | 0.00 | 0.00 | 64 | 998.4 |
| 20260506203752 | 90 | 55 | 10.0 | 20.0 | 0.00 | 0.00 | 0.00 | 63 | 998.4 |
| 20260506202751 | 90 | 59 | 9.0 | 16.0 | 0.00 | 0.00 | 0.00 | 61 | 998.5 |
| 20260506202248 | 91 | 61 | 8.0 | 16.0 | 0.00 | 0.00 | 0.00 | 61 | 998.4 |
| 20260506201751 | 91 | 28 | 6.0 | 20.0 | 0.00 | 0.00 | 0.00 | 61 | 998.2 |
| 20260506201248 | 91 | 55 | 9.0 | 21.0 | 0.00 | 0.00 | 0.00 | 60 | 998.2 |
| 20260506200752 | 91 | 52 | 10.0 | 21.0 | 0.00 | 0.00 | 0.00 | 59 | 998.4 |
| 20260506200247 | 92 | 38 | 10.0 | 20.0 | 0.00 | 0.00 | 0.00 | 59 | 998.2 |
| 20260506195758 | 92 | 31 | 8.0 | 17.0 | 0.00 | 0.00 | 0.00 | 56 | 998.1 |
| 20260506195249 | 92 | 82 | 8.0 | 16.0 | 0.00 | 0.00 | 0.00 | 51 | 998.3 |
| 20260506194247 | 92 | 103 | 4.0 | 10.0 | 0.00 | 0.00 | 0.00 | 51 | 998.3 |
| 20260506193751 | 92 | 73 | 4.0 | 10.0 | 0.00 | 0.00 | 0.00 | 51 | 998.4 |
| 20260506193247 | 92 | 56 | 4.0 | 9.0 | 0.00 | 0.00 | 0.00 | 52 | 998.3 |
| 20260506192750 | 92 | 76 | 2.0 | 9.0 | 0.00 | 0.00 | 0.00 | 53 | 998.3 |
| 20260506192247 | 92 | 73 | 2.0 | 11.0 | 0.00 | 0.00 | 0.00 | 53 | 998.3 |
| 20260506191752 | 92 | 54 | 4.0 | 12.0 | 0.00 | 0.00 | 0.00 | 54 | 998.4 |
| 20260506191247 | 91 | 41 | 7.0 | 12.0 | 0.00 | 0.00 | 0.00 | 54 | 998.5 |
| 20260506190749 | 91 | 96 | 6.0 | 13.0 | 0.00 | 0.00 | 0.00 | 58 | 998.6 |
| 20260506190246 | 91 | 41 | 7.0 | 15.0 | 0.00 | 0.00 | 0.00 | 58 | 998.5 |
| 20260506185749 | 91 | 44 | 6.0 | 15.0 | 0.00 | 0.00 | 0.00 | 58 | 998.6 |
| 20260506185249 | 91 | 21 | 5.0 | 11.0 | 0.00 | 0.00 | 0.00 | 58 | 998.7 |
| 20260506184752 | 91 | 47 | 5.0 | 17.0 | 0.00 | 0.00 | 0.00 | 57 | 998.8 |
| 20260506183751 | 92 | 59 | 4.0 | 9.0 | 0.00 | 0.00 | 0.00 | 53 | 999.0 |
| 20260506183248 | 92 | 102 | 3.0 | 6.0 | 0.00 | 0.00 | 0.00 | 51 | 998.9 |
| 20260506182751 | 92 | 133 | 3.0 | 12.0 | 0.00 | 0.00 | 0.00 | 51 | 998.9 |
| 20260506181748 | 91 | 51 | 3.0 | 12.0 | 0.00 | 0.00 | 0.00 | 58 | 999.1 |
| 20260506181247 | 91 | 51 | 3.0 | 13.0 | 0.00 | 0.00 | 0.00 | 58 | 999.3 |
| 20260506180757 | 91 | 44 | 4.0 | 13.0 | 0.00 | 0.00 | 0.00 | 58 | 999.4 |
| 20260506180247 | 91 | 21 | 3.0 | 15.0 | 0.00 | 0.00 | 0.00 | 58 | 999.4 |
| 20260506175750 | 92 | 87 | 6.0 | 15.0 | 0.00 | 0.00 | 0.00 | 57 | 999.4 |
| 20260506175247 | 92 | 54 | 3.0 | 11.0 | 0.00 | 0.00 | 0.00 | 57 | 999.5 |
| 20260506174750 | 92 | 51 | 1.0 | 11.0 | 0.00 | 0.00 | 0.00 | 56 | 999.7 |
| 20260506174246 | 92 | 30 | 4.0 | 12.0 | 0.00 | 0.00 | 0.00 | 51 | 999.6 |
| 20260506173750 | 92 | 62 | 1.0 | 12.0 | 0.00 | 0.00 | 0.00 | 54 | 999.7 |
| 20260506173246 | 93 | 38 | 5.0 | 10.0 | 0.00 | 0.00 | 0.00 | 52 | 999.8 |
| 20260506172748 | 93 | 61 | 0.0 | 14.0 | 0.00 | 0.00 | 0.00 | 53 | 999.9 |
| 20260506172246 | 93 | 78 | 4.0 | 14.0 | 0.00 | 0.00 | 0.00 | 49 | 1000.0 |
| 20260506171749 | 94 | 78 | 2.0 | 13.0 | 0.00 | 0.00 | 0.00 | 49 | 1000.0 |
| 20260506171246 | 93 | 120 | 4.0 | 13.0 | 0.00 | 0.00 | 0.00 | 49 | 1000.1 |
| 20260506170246 | 92 | 125 | 3.0 | 10.0 | 0.00 | 0.00 | 0.00 | 50 | 1000.2 |
| 20260506165753 | 92 | 149 | 1.0 | 12.0 | 0.00 | 0.00 | 0.00 | 51 | 1000.0 |
| 20260506165246 | 92 | 131 | 4.0 | 12.0 | 0.00 | 0.00 | 0.00 | 51 | 1000.4 |
| 20260506164749 | 92 | 134 | 5.0 | 11.0 | 0.00 | 0.00 | 0.00 | 52 | 1000.3 |
| 20260506163748 | 91 | 104 | 4.0 | 12.0 | 0.00 | 0.00 | 0.00 | 53 | 1000.5 |
| 20260506162801 | 91 | 110 | 3.0 | 12.0 | 0.00 | 0.00 | 0.00 | 53 | 1000.9 |
| 20260506162244 | 92 | 92 | 4.0 | 12.0 | 0.00 | 0.00 | 0.00 | 52 | 1001.0 |
| 20260506161801 | 92 | 76 | 3.0 | 12.0 | 0.00 | 0.00 | 0.00 | 53 | 1001.2 |
| 20260506160755 | 92 | 89 | 3.0 | 14.0 | 0.00 | 0.00 | 0.00 | 52 | 1001.1 |
| 20260506160245 | 91 | 47 | 6.0 | 14.0 | 0.00 | 0.00 | 0.00 | 53 | 1001.4 |
| 20260506155747 | 91 | 140 | 4.0 | 14.0 | 0.00 | 0.00 | 0.00 | 53 | 1001.2 |
| 20260506154745 | 90 | 99 | 7.0 | 17.0 | 0.00 | 0.00 | 0.00 | 55 | 1001.6 |
| 20260506154242 | 90 | 113 | 7.0 | 14.0 | 0.00 | 0.00 | 0.00 | 55 | 1001.7 |
| 20260506153745 | 89 | 110 | 7.0 | 14.0 | 0.00 | 0.00 | 0.00 | 56 | 1001.6 |
| 20260506153241 | 89 | 137 | 3.0 | 12.0 | 0.00 | 0.00 | 0.00 | 59 | 1001.7 |
| 20260506152748 | 89 | 128 | 2.0 | 12.0 | 0.00 | 0.00 | 0.00 | 58 | 1001.9 |
| 20260506151241 | 89 | 168 | 4.0 | 13.0 | 0.00 | 0.03 | 0.00 | 58 | 1002.2 |
| 20260506150744 | 89 | 120 | 1.0 | 11.0 | 0.00 | 0.03 | 0.00 | 58 | 1002.3 |
| 20260506150241 | 89 | 116 | 1.0 | 9.0 | 0.00 | 0.03 | 0.00 | 58 | 1002.4 |
| 20260506145744 | 89 | 102 | 5.0 | 12.0 | 0.00 | 0.03 | 0.00 | 57 | 1002.5 |
| 20260506145240 | 90 | 87 | 5.0 | 14.0 | 0.00 | 0.03 | 0.00 | 58 | 1002.5 |
| 20260506144744 | 89 | 68 | 4.0 | 15.0 | 0.00 | 0.03 | 0.00 | 58 | 1002.4 |
| 20260506144239 | 89 | 124 | 7.0 | 15.0 | 0.00 | 0.03 | 0.00 | 59 | 1002.4 |
| 20260506143239 | 88 | 111 | 4.0 | 10.0 | 0.00 | 0.03 | 0.00 | 61 | 1002.7 |
| 20260506141744 | 88 | 72 | 3.0 | 12.0 | 0.00 | 0.03 | 0.00 | 62 | 1002.8 |
| 20260506141239 | 88 | 127 | 5.0 | 12.0 | 0.00 | 0.03 | 0.00 | 62 | 1002.8 |
| 20260506140239 | 87 | 100 | 3.0 | 11.0 | 0.00 | 0.03 | 0.00 | 64 | 1002.7 |
| 20260506135741 | 87 | 79 | 6.0 | 16.0 | 0.00 | 0.03 | 0.00 | 64 | 1002.9 |
| 20260506135238 | 87 | 124 | 8.0 | 16.0 | 0.00 | 0.03 | 0.00 | 65 | 1002.7 |
| 20260506134741 | 86 | 80 | 5.0 | 11.0 | 0.00 | 0.03 | 0.00 | 67 | 1003.0 |
| 20260506133743 | 86 | 106 | 2.0 | 10.0 | 0.00 | 0.03 | 0.00 | 69 | 1003.0 |
| 20260506133239 | 85 | 87 | 4.0 | 10.0 | 0.00 | 0.03 | 0.00 | 69 | 1003.0 |
| 20260506132742 | 85 | 124 | 5.0 | 11.0 | 0.00 | 0.03 | 0.00 | 70 | 1003.0 |
| 20260506132238 | 85 | 109 | 5.0 | 13.0 | 0.00 | 0.03 | 0.00 | 71 | 1002.9 |
| 20260506131237 | 85 | 56 | 4.0 | 12.0 | 0.00 | 0.03 | 0.00 | 72 | 1003.1 |
| 20260506130741 | 84 | 110 | 3.0 | 7.0 | 0.00 | 0.03 | 0.00 | 74 | 1003.0 |
| 20260506130238 | 84 | 68 | 1.0 | 10.0 | 0.00 | 0.03 | 0.00 | 74 | 1003.0 |
| 20260506125744 | 83 | 72 | 6.0 | 10.0 | 0.00 | 0.03 | 0.00 | 74 | 1002.9 |
| 20260506125238 | 83 | 100 | 2.0 | 9.0 | 0.00 | 0.03 | 0.00 | 75 | 1003.0 |
| 20260506124742 | 83 | 79 | 4.0 | 10.0 | 0.00 | 0.03 | 0.00 | 75 | 1003.0 |
| 20260506124238 | 83 | 113 | 4.0 | 10.0 | 0.00 | 0.03 | 0.00 | 76 | 1002.9 |
| 20260506123742 | 82 | 97 | 3.0 | 9.0 | 0.00 | 0.03 | 0.00 | 76 | 1002.8 |
| 20260506123238 | 82 | 93 | 4.0 | 9.0 | 0.00 | 0.03 | 0.00 | 76 | 1002.9 |
| 20260506122741 | 82 | 127 | 2.0 | 11.0 | 0.00 | 0.03 | 0.00 | 77 | 1002.8 |
| 20260506122238 | 82 | 103 | 3.0 | 11.0 | 0.00 | 0.03 | 0.00 | 77 | 1002.7 |
| 20260506121741 | 82 | 76 | 6.0 | 10.0 | 0.00 | 0.03 | 0.00 | 77 | 1002.7 |
| 20260506120740 | 81 | 69 | 1.0 | 11.0 | 0.00 | 0.03 | 0.00 | 81 | 1002.6 |
| 20260506115237 | 81 | 86 | 2.0 | 6.0 | 0.00 | 0.03 | 0.00 | 81 | 1002.5 |
| 20260506114237 | 80 | 79 | 2.0 | 9.0 | 0.00 | 0.03 | 0.00 | 82 | 1002.4 |
| 20260506113740 | 80 | 96 | 5.0 | 9.0 | 0.00 | 0.03 | 0.00 | 83 | 1002.2 |
| 20260506113237 | 80 | 76 | 2.0 | 9.0 | 0.00 | 0.03 | 0.00 | 83 | 1002.3 |
| 20260506112739 | 79 | 68 | 1.0 | 9.0 | 0.00 | 0.03 | 0.00 | 83 | 1002.2 |
| 20260506112238 | 79 | 69 | 3.0 | 9.0 | 0.00 | 0.03 | 0.00 | 84 | 1002.1 |
| 20260506111739 | 79 | 75 | 2.0 | 7.0 | 0.00 | 0.03 | 0.00 | 84 | 1002.0 |
| 20260506111236 | 78 | 75 | 2.0 | 7.0 | 0.00 | 0.03 | 0.00 | 84 | 1001.9 |
| 20260506110739 | 78 | 75 | 3.0 | 7.0 | 0.00 | 0.03 | 0.00 | 84 | 1001.9 |
| 20260506110236 | 78 | 76 | 2.0 | 6.0 | 0.00 | 0.03 | 0.00 | 84 | 1001.9 |
| 20260506105739 | 78 | 76 | 1.0 | 6.0 | 0.00 | 0.03 | 0.00 | 84 | 1001.7 |
| 20260506105236 | 78 | 76 | 1.0 | 5.0 | 0.00 | 0.03 | 0.00 | 84 | 1001.7 |
| 20260506104739 | 77 | 76 | 2.0 | 5.0 | 0.00 | 0.03 | 0.00 | 84 | 1001.6 |
| 20260506104235 | 77 | 76 | 2.0 | 5.0 | 0.00 | 0.03 | 0.00 | 84 | 1001.6 |
| 20260506103738 | 77 | 76 | 2.0 | 5.0 | 0.00 | 0.03 | 0.00 | 84 | 1001.6 |
| 20260506103235 | 77 | 76 | 0.0 | 3.0 | 0.00 | 0.03 | 0.00 | 84 | 1001.6 |
| 20260506102738 | 77 | 76 | 0.0 | 3.0 | 0.00 | 0.03 | 0.00 | 84 | 1001.6 |
| 20260506102234 | 77 | 76 | 0.0 | 4.0 | 0.00 | 0.03 | 0.00 | 84 | 1001.5 |
| 20260506101738 | 77 | 78 | 1.0 | 4.0 | 0.00 | 0.03 | 0.00 | 84 | 1001.4 |
| 20260506101235 | 76 | 76 | 0.0 | 4.0 | 0.00 | 0.03 | 0.00 | 84 | 1001.3 |
| 20260506100739 | 76 | 76 | 0.0 | 4.0 | 0.00 | 0.03 | 0.00 | 84 | 1001.4 |
| 20260506100238 | 77 | 76 | 1.0 | 5.0 | 0.00 | 0.03 | 0.00 | 84 | 1001.4 |
| 20260506095738 | 77 | 76 | 1.0 | 5.0 | 0.00 | 0.03 | 0.00 | 84 | 1001.4 |
| 20260506095236 | 77 | 78 | 0.0 | 1.0 | 0.00 | 0.03 | 0.00 | 84 | 1001.4 |
| 20260506093737 | 77 | 78 | 0.0 | 3.0 | 0.00 | 0.03 | 0.00 | 84 | 1001.4 |
| 20260506093233 | 77 | 78 | 0.0 | 3.0 | 0.00 | 0.03 | 0.00 | 84 | 1001.3 |
| 20260506092737 | 77 | 78 | 0.0 | 4.0 | 0.00 | 0.03 | 0.00 | 84 | 1001.2 |
| 20260506092235 | 77 | 78 | 1.0 | 4.0 | 0.00 | 0.03 | 0.00 | 84 | 1001.2 |
| 20260506091737 | 77 | 78 | 0.0 | 3.0 | 0.00 | 0.03 | 0.00 | 84 | 1001.2 |
| 20260506091234 | 77 | 78 | 0.0 | 4.0 | 0.00 | 0.03 | 0.00 | 84 | 1001.1 |
| 20260506085736 | 77 | 78 | 0.0 | 5.0 | 0.00 | 0.03 | 0.00 | 84 | 1001.0 |
| 20260506085233 | 77 | 78 | 1.0 | 4.0 | 0.00 | 0.03 | 0.00 | 84 | 1000.9 |
| 20260506084736 | 77 | 78 | 2.0 | 5.0 | 0.00 | 0.03 | 0.00 | 84 | 1000.9 |
| 20260506084233 | 77 | 78 | 2.0 | 5.0 | 0.00 | 0.03 | 0.00 | 84 | 1000.8 |
| 20260506083736 | 77 | 78 | 0.0 | 5.0 | 0.00 | 0.03 | 0.00 | 84 | 1000.7 |
| 20260506083233 | 77 | 78 | 0.0 | 6.0 | 0.00 | 0.03 | 0.00 | 84 | 1000.8 |
| 20260506082736 | 77 | 78 | 3.0 | 6.0 | 0.00 | 0.03 | 0.00 | 84 | 1000.8 |
| 20260506082232 | 77 | 78 | 0.0 | 1.0 | 0.00 | 0.03 | 0.00 | 84 | 1000.7 |
| 20260506081735 | 77 | 78 | 0.0 | 5.0 | 0.00 | 0.03 | 0.00 | 84 | 1000.6 |
| 20260506081232 | 78 | 78 | 0.0 | 6.0 | 0.00 | 0.03 | 0.00 | 84 | 1000.6 |
| 20260506080748 | 78 | 78 | 2.0 | 6.0 | 0.00 | 0.03 | 0.00 | 84 | 1000.7 |
| 20260506080231 | 78 | 78 | 0.0 | 7.0 | 0.00 | 0.03 | 0.00 | 84 | 1000.5 |
| 20260506073231 | 78 | 78 | 0.0 | 5.0 | 0.00 | 0.03 | 0.00 | 84 | 1000.7 |
| 20260506072734 | 78 | 78 | 1.0 | 5.0 | 0.00 | 0.03 | 0.00 | 84 | 1000.7 |
| 20260506072230 | 78 | 78 | 0.0 | 5.0 | 0.00 | 0.03 | 0.00 | 84 | 1000.7 |
| 20260506071734 | 78 | 78 | 2.0 | 6.0 | 0.00 | 0.03 | 0.00 | 84 | 1000.8 |
| 20260506071231 | 78 | 78 | 2.0 | 6.0 | 0.00 | 0.03 | 0.00 | 84 | 1000.7 |
| 20260506070735 | 78 | 79 | 2.0 | 7.0 | 0.00 | 0.03 | 0.00 | 84 | 1000.7 |
| 20260506070231 | 78 | 79 | 4.0 | 7.0 | 0.00 | 0.03 | 0.00 | 84 | 1000.7 |
| 20260506062231 | 78 | 82 | 2.0 | 5.0 | 0.00 | 0.03 | 0.00 | 84 | 1000.5 |
| 20260506061732 | 78 | 82 | 1.0 | 3.0 | 0.00 | 0.03 | 0.00 | 84 | 1000.5 |
| 20260506061230 | 78 | 82 | 0.0 | 2.0 | 0.00 | 0.03 | 0.00 | 84 | 1000.5 |
| 20260506060733 | 78 | 82 | 0.0 | 4.0 | 0.00 | 0.03 | 0.00 | 84 | 1000.6 |
| 20260506060229 | 78 | 82 | 0.0 | 4.0 | 0.00 | 0.03 | 0.00 | 84 | 1000.7 |
| 20260506050228 | 78 | 87 | 0.0 | 2.0 | 0.00 | 0.03 | 0.00 | 83 | 1001.1 |
| 20260506044731 | 79 | 87 | 2.0 | 7.0 | 0.00 | 0.03 | 0.00 | 83 | 1001.2 |
| 20260506044228 | 79 | 83 | 1.0 | 5.0 | 0.00 | 0.03 | 0.00 | 83 | 1001.2 |
| 20260506043731 | 79 | 83 | 0.0 | 7.0 | 0.00 | 0.03 | 0.00 | 83 | 1001.2 |
| 20260506043227 | 79 | 83 | 3.0 | 7.0 | 0.00 | 0.03 | 0.00 | 83 | 1001.2 |